SV2GWY Weather Reports


time (UTC)temp
C
wind
direction
speed
KPH
gust
KPH
rain 1hr
cm
rain 24hr
cm
rain mn
cm
humidity
%
barometer
mb
20260507123444 20 326 3.2 6.4 0.00 0.00 0.00 66 1018.6
20260507123055 20 359 1.6 6.4 0.00 0.00 0.00 67 1018.7
20260507122953 20 350 3.2 6.4 0.00 0.00 0.00 67 1018.7
20260507122444 20 46 1.6 6.4 0.00 0.00 0.00 68 1018.9
20260507121944 20 340 1.6 4.8 0.00 0.00 0.00 68 1019.1
20260507121548 19 286 0.0 3.2 0.00 0.00 0.00 71 1019.2
20260507121455 19 332 0.0 1.6 0.00 0.00 0.00 70 1019.3
20260507120944 19 11 0.0 0.0 0.00 0.00 0.00 73 1019.5
20260507120444 18 11 0.0 1.6 0.00 0.00 0.00 71 1019.5
20260507120054 18 42 0.0 3.2 0.00 0.00 0.00 73 1019.4
20260507115953 18 42 0.0 3.2 0.00 0.00 0.00 73 1019.6
20260507115444 18 285 1.6 3.2 0.00 0.00 0.00 73 1019.7
20260507114945 18 330 0.0 3.2 0.00 0.00 0.00 76 1019.7
20260507114547 18 322 0.0 4.8 0.00 0.00 0.00 75 1019.5
20260507114454 18 359 1.6 4.8 0.00 0.00 0.00 75 1019.7
20260507113944 18 339 1.6 4.8 0.00 0.00 0.00 76 1019.7
20260507113444 18 34 1.6 4.8 0.00 0.00 0.00 75 1019.9
20260507113044 18 340 0.0 4.8 0.00 0.00 0.00 75 1019.8
20260507112954 18 311 0.0 4.8 0.00 0.00 0.00 75 1019.9
20260507112445 18 25 0.0 3.2 0.00 0.00 0.00 74 1020.0
20260507111955 18 307 1.6 4.8 0.00 0.00 0.00 72 1020.0
20260507111547 18 313 1.6 4.8 0.00 0.00 0.00 71 1020.0
20260507111453 18 283 1.6 4.8 0.00 0.00 0.00 71 1020.1
20260507110944 18 310 1.6 4.8 0.00 0.00 0.00 71 1020.1
20260507110446 18 319 1.6 4.8 0.00 0.00 0.00 70 1020.1
20260507110045 18 293 0.0 3.2 0.00 0.00 0.00 69 1019.9
20260507105954 18 303 1.6 4.8 0.00 0.00 0.00 69 1020.0
20260507105444 18 354 0.0 4.8 0.00 0.00 0.00 68 1020.0
20260507104944 19 330 1.6 4.8 0.00 0.00 0.00 67 1019.9
20260507104545 19 307 0.0 4.8 0.00 0.00 0.00 67 1019.8
20260507104454 19 307 0.0 8.0 0.00 0.00 0.00 66 1020.0
20260507103945 19 356 1.6 8.0 0.00 0.00 0.00 64 1020.0
20260507103445 19 285 3.2 6.4 0.00 0.00 0.00 62 1020.0
20260507103044 19 3 1.6 4.8 0.00 0.00 0.00 62 1019.7
20260507103005 19 288 1.6 6.4 0.00 0.00 0.00 61 1019.9
20260507102445 19 238 1.6 8.0 0.00 0.00 0.00 62 1020.0
20260507101956 19 227 3.2 8.0 0.00 0.00 0.00 62 1020.0
20260507101548 19 319 3.2 9.7 0.00 0.00 0.00 62 1019.8
20260507101454 19 302 3.2 9.7 0.00 0.00 0.00 62 1019.9
20260507100945 19 300 3.2 9.7 0.00 0.00 0.00 64 1020.0
20260507100446 20 338 4.8 8.0 0.00 0.00 0.00 63 1020.1
20260507100045 20 231 3.2 8.0 0.00 0.00 0.00 63 1019.8
20260507095955 20 295 4.8 8.0 0.00 0.00 0.00 63 1020.0
20260507095445 20 315 3.2 8.0 0.00 0.00 0.00 61 1019.9
20260507094946 20 307 4.8 8.0 0.00 0.00 0.00 60 1019.8
20260507094547 20 285 1.6 11.3 0.00 0.00 0.00 60 1019.5
20260507094455 20 251 1.6 11.3 0.00 0.00 0.00 60 1019.7
20260507093945 20 285 3.2 9.7 0.00 0.00 0.00 62 1019.6
20260507093446 20 299 4.8 9.7 0.00 0.00 0.00 60 1019.5
20260507093045 20 293 1.6 9.7 0.00 0.00 0.00 63 1019.2
20260507092955 20 304 1.6 9.7 0.00 0.00 0.00 62 1019.4
20260507092457 20 293 4.8 9.7 0.00 0.00 0.00 61 1019.3
20260507091946 20 279 6.4 9.7 0.00 0.00 0.00 61 1019.1
20260507091547 20 316 4.8 9.7 0.00 0.00 0.00 61 1018.9
20260507091454 20 15 6.4 9.7 0.00 0.00 0.00 62 1018.9
20260507090945 20 330 4.8 12.9 0.00 0.00 0.00 62 1018.9
20260507090445 20 321 4.8 12.9 0.00 0.00 0.00 60 1018.8
20260507090045 20 347 4.8 9.7 0.00 0.00 0.00 59 1018.6
20260507085954 20 307 6.4 9.7 0.00 0.00 0.00 59 1018.8
20260507085446 20 347 3.2 8.0 0.00 0.00 0.00 59 1018.7
20260507084945 20 328 3.2 8.0 0.00 0.00 0.00 57 1018.6
20260507084551 20 298 1.6 12.9 0.00 0.00 0.00 57 1018.4
20260507084455 20 302 3.2 12.9 0.00 0.00 0.00 59 1018.7
20260507083946 20 14 4.8 9.7 0.00 0.00 0.00 57 1018.6
20260507083445 20 319 3.2 9.7 0.00 0.00 0.00 58 1018.5
20260507083050 20 3 3.2 8.0 0.00 0.00 0.00 59 1018.4
20260507083005 20 314 4.8 8.0 0.00 0.00 0.00 59 1018.5
20260507082458 20 37 0.0 6.4 0.00 0.00 0.00 59 1018.5
20260507081946 20 316 1.6 6.4 0.00 0.00 0.00 59 1018.4
20260507081545 21 293 3.2 6.4 0.00 0.00 0.00 58 1018.3
20260507081455 21 317 4.8 6.4 0.00 0.00 0.00 58 1018.4
20260507080946 21 297 1.6 6.4 0.00 0.00 0.00 60 1018.4
20260507080446 20 282 3.2 6.4 0.00 0.00 0.00 58 1018.4
20260507080111 20 268 1.6 6.4 0.00 0.00 0.00 60 1018.2
20260507075956 20 255 1.6 6.4 0.00 0.00 0.00 60 1018.4
20260507075456 20 282 3.2 6.4 0.00 0.00 0.00 58 1018.3
20260507074945 20 292 3.2 9.7 0.00 0.00 0.00 60 1018.2
20260507074547 20 255 1.6 9.7 0.00 0.00 0.00 60 1018.0
20260507074455 20 20 3.2 9.7 0.00 0.00 0.00 60 1018.1
20260507073946 20 317 3.2 6.4 0.00 0.00 0.00 60 1018.1
20260507073446 20 268 3.2 8.0 0.00 0.00 0.00 60 1018.0
20260507073053 20 315 3.2 8.0 0.00 0.00 0.00 60 1017.8
20260507072956 20 302 3.2 8.0 0.00 0.00 0.00 59 1018.0
20260507072446 20 257 1.6 6.4 0.00 0.00 0.00 61 1017.9
20260507071957 20 285 1.6 6.4 0.00 0.00 0.00 61 1017.9
20260507071559 20 297 1.6 6.4 0.00 0.00 0.00 62 1017.6
20260507071506 19 23 1.6 6.4 0.00 0.00 0.00 62 1017.8
20260507070946 19 316 1.6 8.0 0.00 0.00 0.00 64 1017.9
20260507070446 19 73 3.2 8.0 0.00 0.00 0.00 66 1017.9
20260507070046 19 304 1.6 8.0 0.00 0.00 0.00 67 1017.8
20260507065955 19 304 3.2 8.0 0.00 0.00 0.00 67 1018.0
20260507065446 19 306 4.8 8.0 0.00 0.00 0.00 67 1018.0
20260507064946 19 319 1.6 6.4 0.00 0.00 0.00 65 1018.0
20260507064551 20 286 1.6 6.4 0.00 0.00 0.00 63 1017.9
20260507064506 20 285 3.2 6.4 0.00 0.00 0.00 63 1018.0
20260507063946 20 356 1.6 4.8 0.00 0.00 0.00 64 1018.1
20260507063446 20 304 3.2 8.0 0.00 0.00 0.00 64 1018.1
20260507063048 20 328 1.6 8.0 0.00 0.00 0.00 63 1017.9
20260507062955 20 329 3.2 8.0 0.00 0.00 0.00 63 1018.1
20260507062446 20 240 1.6 4.8 0.00 0.00 0.00 61 1018.0
20260507061946 20 239 1.6 4.8 0.00 0.00 0.00 62 1018.0
20260507061546 20 262 1.6 4.8 0.00 0.00 0.00 62 1017.7
20260507061506 20 286 3.2 4.8 0.00 0.00 0.00 61 1017.9
20260507060946 20 60 0.0 3.2 0.00 0.00 0.00 64 1017.8
20260507060446 20 51 0.0 3.2 0.00 0.00 0.00 64 1017.8
20260507060046 20 44 0.0 3.2 0.00 0.00 0.00 65 1017.6
20260507055956 20 47 0.0 3.2 0.00 0.00 0.00 65 1017.7
20260507055446 20 72 1.6 3.2 0.00 0.00 0.00 66 1017.6
20260507054948 20 121 0.0 3.2 0.00 0.00 0.00 67 1017.7
20260507054552 20 137 0.0 3.2 0.00 0.00 0.00 67 1017.5
20260507054506 20 137 0.0 3.2 0.00 0.00 0.00 67 1017.7
20260507053946 20 60 0.0 1.6 0.00 0.00 0.00 67 1017.7
20260507053446 19 60 0.0 1.6 0.00 0.00 0.00 70 1017.7
20260507053048 18 59 0.0 1.6 0.00 0.00 0.00 77 1017.6
20260507052957 18 59 0.0 1.6 0.00 0.00 0.00 77 1017.7
20260507052446 17 59 0.0 3.2 0.00 0.00 0.00 79 1017.6
20260507051958 18 58 1.6 3.2 0.00 0.00 0.00 77 1017.5
20260507051547 18 88 0.0 1.6 0.00 0.00 0.00 76 1017.3
20260507051456 18 158 0.0 1.6 0.00 0.00 0.00 77 1017.4
20260507050946 17 162 0.0 3.2 0.00 0.00 0.00 79 1017.4
20260507050458 17 167 1.6 3.2 0.00 0.00 0.00 80 1017.5
20260507050046 16 158 0.0 3.2 0.00 0.00 0.00 82 1017.3
20260507045955 16 166 1.6 3.2 0.00 0.00 0.00 82 1017.5
20260507045446 16 149 0.0 1.6 0.00 0.00 0.00 84 1017.5
20260507044947 15 184 0.0 3.2 0.00 0.00 0.00 86 1017.5
20260507044546 15 162 0.0 3.2 0.00 0.00 0.00 86 1017.4
20260507044456 15 155 0.0 3.2 0.00 0.00 0.00 87 1017.5
20260507043949 14 177 1.6 3.2 0.00 0.00 0.00 87 1017.5
20260507043457 13 140 1.6 3.2 0.00 0.00 0.00 89 1017.4
20260507043047 13 155 0.0 1.6 0.00 0.00 0.00 91 1017.2
20260507042956 13 163 0.0 1.6 0.00 0.00 0.00 91 1017.5
20260507042446 12 164 0.0 0.0 0.00 0.00 0.00 91 1017.4
20260507041948 12 149 0.0 1.6 0.00 0.00 0.00 92 1017.5
20260507041549 12 167 0.0 1.6 0.00 0.00 0.00 91 1017.3
20260507041457 12 205 0.0 1.6 0.00 0.00 0.00 91 1017.3
20260507040958 11 139 0.0 3.2 0.00 0.00 0.00 91 1017.3
20260507040448 11 139 0.0 3.2 0.00 0.00 0.00 91 1017.3
20260507040058 11 200 0.0 0.0 0.00 0.00 0.00 91 1017.0
20260507040007 11 207 0.0 0.0 0.00 0.00 0.00 91 1017.2
20260507035459 11 207 0.0 0.0 0.00 0.00 0.00 92 1017.0
20260507034947 11 207 0.0 0.0 0.00 0.00 0.00 91 1017.0
20260507034555 11 207 0.0 0.0 0.00 0.00 0.00 91 1016.8
20260507034456 11 207 0.0 1.6 0.00 0.00 0.00 91 1017.0
20260507033947 11 207 0.0 1.6 0.00 0.00 0.00 91 1016.9
20260507033447 11 212 0.0 1.6 0.00 0.00 0.00 91 1016.9
20260507033047 11 131 0.0 0.0 0.00 0.00 0.00 91 1016.8
20260507033007 11 131 0.0 0.0 0.00 0.00 0.00 91 1016.8
20260507032447 11 131 0.0 1.6 0.00 0.00 0.00 92 1016.8
20260507031947 11 237 0.0 1.6 0.00 0.00 0.00 91 1016.8
20260507031547 11 237 0.0 1.6 0.00 0.00 0.00 91 1016.7
20260507031456 11 238 0.0 1.6 0.00 0.00 0.00 91 1016.8
20260507030947 11 244 0.0 1.6 0.00 0.00 0.00 91 1016.8
20260507030447 11 227 0.0 1.6 0.00 0.00 0.00 91 1016.8
20260507030053 11 190 0.0 1.6 0.00 0.00 0.00 91 1016.6
20260507025956 11 158 0.0 1.6 0.00 0.00 0.00 91 1016.7
20260507025447 11 223 0.0 1.6 0.00 0.00 0.00 92 1016.7
20260507024958 11 226 0.0 3.2 0.00 0.00 0.00 91 1016.7
20260507024547 11 167 0.0 3.2 0.00 0.00 0.00 91 1016.5
20260507024457 11 164 1.6 3.2 0.00 0.00 0.00 91 1016.7
20260507023947 11 172 0.0 1.6 0.00 0.00 0.00 91 1016.7
20260507023458 11 162 0.0 1.6 0.00 0.00 0.00 91 1016.7
20260507023047 11 161 0.0 1.6 0.00 0.00 0.00 91 1016.5
20260507022956 11 161 0.0 1.6 0.00 0.00 0.00 91 1016.6
20260507022447 11 233 0.0 1.6 0.00 0.00 0.00 91 1016.6
20260507021947 11 231 0.0 1.6 0.00 0.00 0.00 91 1016.5
20260507021548 11 194 0.0 1.6 0.00 0.00 0.00 91 1016.5
20260507021456 11 141 0.0 1.6 0.00 0.00 0.00 91 1016.7
20260507020947 11 170 0.0 0.0 0.00 0.00 0.00 91 1016.8
20260507020448 11 186 0.0 1.6 0.00 0.00 0.00 91 1016.7
20260507020057 11 186 0.0 1.6 0.00 0.00 0.00 91 1016.5
20260507015957 11 230 0.0 1.6 0.00 0.00 0.00 91 1016.6
20260507015453 11 240 0.0 0.0 0.00 0.00 0.00 91 1016.5
20260507014947 12 240 0.0 1.6 0.00 0.00 0.00 91 1016.5
20260507014559 12 260 0.0 1.6 0.00 0.00 0.00 91 1016.4
20260507014457 11 259 1.6 1.6 0.00 0.00 0.00 91 1016.5
20260507013947 11 241 0.0 1.6 0.00 0.00 0.00 91 1016.4
20260507013500 11 176 0.0 3.2 0.00 0.00 0.00 91 1016.6
20260507013048 11 146 0.0 3.2 0.00 0.00 0.00 90 1016.3
20260507012958 11 134 1.6 3.2 0.00 0.00 0.00 90 1016.5
20260507012500 12 195 0.0 0.0 0.00 0.00 0.00 91 1016.5
20260507011948 12 207 0.0 0.0 0.00 0.00 0.00 91 1016.5
20260507011556 12 206 0.0 1.6 0.00 0.00 0.00 91 1016.2
20260507011457 12 206 0.0 1.6 0.00 0.00 0.00 91 1016.4
20260507010959 12 210 0.0 1.6 0.00 0.00 0.00 91 1016.4
20260507010447 12 208 0.0 1.6 0.00 0.00 0.00 91 1016.4
20260507010048 12 233 0.0 1.6 0.00 0.00 0.00 91 1016.3
20260507010008 12 234 0.0 1.6 0.00 0.00 0.00 91 1016.4
20260507005448 12 203 0.0 4.8 0.00 0.00 0.00 90 1016.4
20260507004949 12 198 0.0 1.6 0.00 0.00 0.00 90 1016.4
20260507004548 12 251 0.0 0.0 0.00 0.00 0.00 90 1016.2
20260507004457 12 251 0.0 0.0 0.00 0.00 0.00 90 1016.3
20260507003948 12 255 0.0 0.0 0.00 0.00 0.00 90 1016.3
20260507003448 12 134 0.0 1.6 0.00 0.00 0.00 90 1016.2
20260507003048 12 215 0.0 1.6 0.00 0.00 0.00 90 1016.0
20260507002957 12 214 0.0 1.6 0.00 0.00 0.00 90 1016.2
20260507002459 12 224 0.0 1.6 0.00 0.00 0.00 90 1016.1
20260507001948 12 226 0.0 3.2 0.00 0.00 0.00 90 1016.2
20260507001605 12 226 0.0 4.8 0.00 0.00 0.00 90 1016.1
20260507001457 12 226 0.0 4.8 0.00 0.00 0.00 90 1016.2
20260507000948 12 203 1.6 4.8 0.00 0.00 0.00 90 1016.2
20260507000450 12 288 0.0 4.8 0.00 0.00 0.00 90 1016.3
20260507000057 12 212 0.0 1.6 0.00 0.00 0.00 89 1016.2
20260506235958 12 204 0.0 1.6 0.00 0.00 0.00 89 1016.4
20260506235448 12 195 0.0 1.6 0.00 0.00 0.00 89 1016.5
20260506234948 12 131 0.0 3.2 0.00 0.00 0.00 89 1016.4
20260506234548 12 179 0.0 3.2 0.00 0.00 0.00 89 1016.3
20260506234457 12 179 0.0 3.2 0.00 0.00 0.00 89 1016.5
20260506233959 12 229 0.0 1.6 0.00 0.00 0.00 89 1016.6
20260506233450 12 233 0.0 1.6 0.00 0.00 0.00 89 1016.6
20260506233048 12 233 0.0 1.6 0.00 0.00 0.00 89 1016.5
20260506232957 12 233 0.0 1.6 0.00 0.00 0.00 89 1016.5
20260506232448 12 181 0.0 3.2 0.00 0.00 0.00 89 1016.6
20260506231948 12 182 0.0 3.2 0.00 0.00 0.00 89 1016.6
20260506231548 12 213 0.0 0.0 0.00 0.00 0.00 89 1016.4
20260506231457 12 213 0.0 0.0 0.00 0.00 0.00 89 1016.5
20260506230948 12 212 0.0 1.6 0.00 0.00 0.00 89 1016.5
20260506230449 12 211 0.0 1.6 0.00 0.00 0.00 89 1016.4
20260506230051 12 204 0.0 1.6 0.00 0.00 0.00 88 1016.4
20260506225958 12 204 0.0 1.6 0.00 0.00 0.00 88 1016.5
20260506225449 12 138 0.0 1.6 0.00 0.00 0.00 88 1016.6
20260506224948 12 191 0.0 0.0 0.00 0.00 0.00 88 1016.5
20260506224549 12 207 0.0 1.6 0.00 0.00 0.00 88 1016.4
20260506224458 12 207 0.0 1.6 0.00 0.00 0.00 88 1016.4
20260506223948 12 207 0.0 1.6 0.00 0.00 0.00 88 1016.5
20260506223448 12 269 0.0 1.6 0.00 0.00 0.00 87 1016.5
20260506223048 12 144 0.0 1.6 0.00 0.00 0.00 87 1016.4
20260506223010 12 159 0.0 1.6 0.00 0.00 0.00 87 1016.5
20260506222448 12 164 0.0 1.6 0.00 0.00 0.00 87 1016.6
20260506222000 12 223 0.0 3.2 0.00 0.00 0.00 87 1016.6
20260506221548 12 200 0.0 3.2 0.00 0.00 0.00 87 1016.5
20260506221458 12 221 0.0 3.2 0.00 0.00 0.00 87 1016.5
20260506220950 12 222 1.6 4.8 0.00 0.00 0.00 86 1016.6
20260506220450 12 167 1.6 4.8 0.00 0.00 0.00 86 1016.6
20260506220058 13 198 0.0 3.2 0.00 0.00 0.00 85 1016.5
20260506215958 13 240 0.0 3.2 0.00 0.00 0.00 85 1016.6
20260506215450 13 226 1.6 3.2 0.00 0.00 0.00 85 1016.7
20260506214949 13 161 0.0 3.2 0.00 0.00 0.00 85 1016.7
20260506214549 13 276 0.0 3.2 0.00 0.00 0.00 84 1016.6
20260506214458 13 207 0.0 3.2 0.00 0.00 0.00 84 1016.7
20260506213950 13 221 1.6 3.2 0.00 0.00 0.00 83 1016.7
20260506213449 13 136 1.6 3.2 0.00 0.00 0.00 83 1016.7
20260506213052 13 216 0.0 3.2 0.00 0.00 0.00 83 1016.5
20260506212958 13 216 0.0 3.2 0.00 0.00 0.00 83 1016.7
20260506212449 13 219 0.0 3.2 0.00 0.00 0.00 83 1016.8
20260506211950 13 198 0.0 3.2 0.00 0.00 0.00 83 1016.8
20260506211550 13 148 1.6 3.2 0.00 0.00 0.00 83 1016.5
20260506211458 13 158 1.6 3.2 0.00 0.00 0.00 83 1016.7
20260506210949 13 169 0.0 6.4 0.00 0.00 0.00 83 1016.7
20260506210451 13 240 1.6 6.4 0.00 0.00 0.00 82 1016.8
20260506210059 13 216 0.0 1.6 0.00 0.00 0.00 83 1016.8
20260506205958 13 216 0.0 1.6 0.00 0.00 0.00 83 1016.9
20260506205450 13 265 0.0 1.6 0.00 0.00 0.00 83 1016.7
20260506205000 13 225 0.0 3.2 0.00 0.00 0.00 82 1016.7
20260506204552 14 155 0.0 3.2 0.00 0.00 0.00 82 1016.5
20260506204459 14 179 1.6 3.2 0.00 0.00 0.00 83 1016.7
20260506203950 14 248 1.6 3.2 0.00 0.00 0.00 83 1016.5
20260506203449 13 143 0.0 3.2 0.00 0.00 0.00 83 1016.5
20260506203138 14 239 0.0 4.8 0.00 0.00 0.00 83 1016.4
20260506202958 14 153 0.0 4.8 0.00 0.00 0.00 83 1016.5
20260506202449 14 266 1.6 3.2 0.00 0.00 0.00 83 1016.5
20260506201949 14 136 0.0 3.2 0.00 0.00 0.00 84 1016.6
20260506201549 14 165 0.0 3.2 0.00 0.00 0.00 84 1016.4
20260506201459 14 134 0.0 3.2 0.00 0.00 0.00 84 1016.5
20260506201001 14 144 0.0 3.2 0.00 0.00 0.00 84 1016.5
20260506200449 14 213 0.0 3.2 0.00 0.00 0.00 84 1016.5
20260506200051 15 254 0.0 3.2 0.00 0.00 0.00 84 1016.2
20260506200000 15 254 0.0 3.2 0.00 0.00 0.00 84 1016.4
20260506195500 15 255 0.0 1.6 0.00 0.00 0.00 84 1016.3
20260506194949 15 219 0.0 3.2 0.00 0.00 0.00 84 1016.2
20260506194550 15 205 0.0 4.8 0.00 0.00 0.00 85 1016.0
20260506194459 15 136 0.0 6.4 0.00 0.00 0.00 85 1016.1
20260506193951 15 220 1.6 6.4 0.00 0.00 0.00 85 1016.2
20260506193450 15 187 1.6 4.8 0.00 0.00 0.00 84 1016.1
20260506193049 15 194 0.0 3.2 0.00 0.00 0.00 85 1016.0
20260506193010 15 229 1.6 3.2 0.00 0.00 0.00 85 1016.2
20260506192451 15 224 0.0 4.8 0.00 0.00 0.00 85 1016.1
20260506191949 15 205 1.6 3.2 0.00 0.00 0.00 85 1016.1
20260506191553 15 141 0.0 4.8 0.00 0.00 0.00 85 1015.9
20260506191459 15 226 1.6 4.8 0.00 0.00 0.00 85 1016.1
20260506190949 15 220 1.6 4.8 0.00 0.00 0.00 85 1016.0
20260506190451 15 212 0.0 4.8 0.00 0.00 0.00 85 1016.2
20260506190054 15 195 0.0 3.2 0.00 0.00 0.00 85 1015.8
20260506185959 15 207 0.0 4.8 0.00 0.00 0.00 85 1016.0
20260506185451 15 227 1.6 4.8 0.00 0.00 0.00 85 1016.0
20260506184950 15 219 1.6 4.8 0.00 0.00 0.00 84 1015.9
20260506184557 15 135 0.0 4.8 0.00 0.00 0.00 84 1015.7
20260506184459 15 217 1.6 4.8 0.00 0.00 0.00 84 1015.8
20260506183950 15 222 1.6 6.4 0.00 0.00 0.00 84 1015.9
20260506183450 15 249 1.6 6.4 0.00 0.00 0.00 84 1015.7
20260506183053 15 236 0.0 6.4 0.00 0.00 0.00 84 1015.6
20260506183000 15 205 1.6 6.4 0.00 0.00 0.00 84 1015.8
20260506182451 15 223 1.6 6.4 0.00 0.00 0.00 84 1015.8
20260506181950 15 230 1.6 4.8 0.00 0.00 0.00 83 1015.7
20260506181556 15 219 0.0 6.4 0.00 0.00 0.00 83 1015.3
20260506181459 15 195 1.6 6.4 0.00 0.00 0.00 83 1015.6
20260506180951 16 206 1.6 6.4 0.00 0.00 0.00 82 1015.5
20260506180451 16 230 1.6 6.4 0.00 0.00 0.00 82 1015.5
20260506180053 16 231 0.0 6.4 0.00 0.00 0.00 82 1015.2
20260506180000 16 224 1.6 6.4 0.00 0.00 0.00 82 1015.4
20260506175502 16 196 1.6 6.4 0.00 0.00 0.00 82 1015.3
20260506174950 16 233 3.2 6.4 0.00 0.00 0.00 81 1015.3
20260506174605 16 143 3.2 6.4 0.00 0.00 0.00 81 1015.0
20260506174501 16 227 1.6 6.4 0.00 0.00 0.00 81 1015.3
20260506173951 16 206 3.2 8.0 0.00 0.00 0.00 81 1015.2
20260506173452 17 199 3.2 8.0 0.00 0.00 0.00 80 1015.1
20260506173055 17 211 3.2 8.0 0.00 0.00 0.00 79 1014.9
20260506173011 17 118 3.2 8.0 0.00 0.00 0.00 79 1015.2
20260506172451 17 179 3.2 8.0 0.00 0.00 0.00 79 1015.1
20260506171951 17 209 3.2 9.7 0.00 0.00 0.00 79 1015.2
20260506171557 17 148 3.2 9.7 0.00 0.00 0.00 78 1014.9
20260506171459 17 215 4.8 9.7 0.00 0.00 0.00 78 1015.0
20260506170951 18 250 4.8 11.3 0.00 0.00 0.00 77 1015.1
20260506170452 18 155 4.8 11.3 0.00 0.00 0.00 76 1015.1
20260506170051 18 152 3.2 9.7 0.00 0.00 0.00 75 1014.8
20260506170012 18 219 3.2 9.7 0.00 0.00 0.00 75 1015.2
20260506165452 19 185 3.2 8.0 0.00 0.00 0.00 73 1015.0
20260506164951 20 121 4.8 8.0 0.00 0.00 0.00 72 1015.1
20260506164554 20 177 3.2 6.4 0.00 0.00 0.00 71 1014.9
20260506164502 20 191 3.2 6.4 0.00 0.00 0.00 71 1015.0
20260506163952 20 194 3.2 11.3 0.00 0.00 0.00 70 1015.0
20260506163450 21 169 4.8 11.3 0.00 0.00 0.00 68 1015.0
20260506163104 21 169 3.2 9.7 0.00 0.00 0.00 68 1014.8
20260506163012 21 147 4.8 9.7 0.00 0.00 0.00 67 1014.9
20260506162451 21 190 4.8 9.7 0.00 0.00 0.00 66 1014.9
20260506161950 22 190 4.8 16.1 0.00 0.00 0.00 64 1014.9
20260506161551 22 233 4.8 16.1 0.00 0.00 0.00 63 1014.6
20260506161512 22 128 6.4 16.1 0.00 0.00 0.00 63 1014.8
20260506160952 22 250 4.8 11.3 0.00 0.00 0.00 62 1014.8
20260506160452 22 153 6.4 12.9 0.00 0.00 0.00 61 1014.8
20260506160051 22 167 3.2 12.9 0.00 0.00 0.00 60 1014.5
20260506160012 22 133 4.8 12.9 0.00 0.00 0.00 60 1014.8
20260506155451 23 158 4.8 11.3 0.00 0.00 0.00 58 1014.8
20260506154952 23 162 4.8 11.3 0.00 0.00 0.00 57 1014.8
20260506154554 23 255 4.8 12.9 0.00 0.00 0.00 57 1014.6
20260506154512 23 132 4.8 12.9 0.00 0.00 0.00 56 1014.8
20260506153952 23 158 6.4 14.5 0.00 0.00 0.00 56 1014.9
20260506153452 23 234 8.0 16.1 0.00 0.00 0.00 55 1014.9
20260506153100 23 142 6.4 16.1 0.00 0.00 0.00 55 1014.7
20260506153001 23 179 8.0 17.7 0.00 0.00 0.00 55 1015.0
20260506152452 23 53 9.7 17.7 0.00 0.00 0.00 53 1014.9
20260506151952 23 193 6.4 14.5 0.00 0.00 0.00 53 1014.9
20260506151551 23 164 6.4 16.1 0.00 0.00 0.00 52 1014.7
20260506151500 23 156 8.0 16.1 0.00 0.00 0.00 51 1014.9
20260506150951 24 167 6.4 17.7 0.00 0.00 0.00 51 1014.9
20260506150452 24 222 8.0 17.7 0.00 0.00 0.00 51 1014.9
20260506150051 24 164 6.4 14.5 0.00 0.00 0.00 50 1014.7
20260506150000 24 145 8.0 14.5 0.00 0.00 0.00 50 1014.9
20260506145503 24 204 6.4 14.5 0.00 0.00 0.00 49 1015.0
20260506144952 25 187 6.4 14.5 0.00 0.00 0.00 49 1015.0
20260506144551 25 157 6.4 16.1 0.00 0.00 0.00 48 1014.8
20260506144500 25 219 6.4 16.1 0.00 0.00 0.00 48 1015.0
20260506144003 25 184 6.4 16.1 0.00 0.00 0.00 48 1015.0
20260506143502 25 172 6.4 14.5 0.00 0.00 0.00 47 1015.0
20260506143051 25 214 8.0 14.5 0.00 0.00 0.00 46 1014.8
20260506143000 25 174 8.0 16.1 0.00 0.00 0.00 46 1015.0
20260506142451 25 135 8.0 16.1 0.00 0.00 0.00 45 1015.1
20260506141952 25 190 9.7 14.5 0.00 0.00 0.00 45 1015.1
20260506141551 25 138 6.4 14.5 0.00 0.00 0.00 44 1014.9
20260506141513 25 229 6.4 14.5 0.00 0.00 0.00 44 1015.2
20260506140951 25 173 6.4 19.3 0.00 0.00 0.00 44 1015.2
20260506140502 25 208 9.7 19.3 0.00 0.00 0.00 43 1015.2
20260506140051 25 128 8.0 14.5 0.00 0.00 0.00 43 1015.0
20260506140000 25 175 8.0 14.5 0.00 0.00 0.00 43 1015.2
20260506135452 25 235 6.4 17.7 0.00 0.00 0.00 43 1015.2
20260506134951 25 152 8.0 17.7 0.00 0.00 0.00 42 1015.3
20260506134551 25 176 6.4 14.5 0.00 0.00 0.00 42 1015.0
20260506134500 25 212 6.4 14.5 0.00 0.00 0.00 42 1015.3
20260506133951 25 193 6.4 20.9 0.00 0.00 0.00 42 1015.3
20260506133503 25 207 6.4 20.9 0.00 0.00 0.00 41 1015.3
20260506133052 25 127 8.0 19.3 0.00 0.00 0.00 41 1015.2
20260506133000 25 148 8.0 19.3 0.00 0.00 0.00 41 1015.5
20260506132451 25 274 6.4 16.1 0.00 0.00 0.00 41 1015.4
20260506131951 25 151 8.0 16.1 0.00 0.00 0.00 40 1015.5
20260506131556 25 223 6.4 16.1 0.00 0.00 0.00 40 1015.3
20260506131512 25 207 8.0 16.1 0.00 0.00 0.00 40 1015.5
20260506131003 25 261 9.7 17.7 0.00 0.00 0.00 42 1015.6
20260506130452 25 148 9.7 17.7 0.00 0.00 0.00 42 1015.6
20260506130053 25 221 6.4 14.5 0.00 0.00 0.00 42 1015.3
20260506130001 25 226 8.0 14.5 0.00 0.00 0.00 42 1015.7
20260506125451 25 149 6.4 16.1 0.00 0.00 0.00 42 1015.6
20260506124952 25 225 9.7 17.7 0.00 0.00 0.00 41 1015.7
20260506124553 26 159 6.4 17.7 0.00 0.00 0.00 42 1015.5
20260506124501 25 209 8.0 17.7 0.00 0.00 0.00 41 1015.7
20260506124003 26 217 6.4 14.5 0.00 0.00 0.00 41 1015.8